Location: Preissac
(48.4072°N, 78.3618°W)
Time: 14:23:00
(UTC-04:00)

ISS - Visible Passes

Search period start: 23 September 2020 00:00
Search period end: 03 October 2020 00:00
Orbit: 419 x 420 km, 51.6° (Epoch: 23 September)

Date Brightness Start Highest point End Pass type
(mag) Time Alt. Az. Time Alt. Az. Time Alt. Az.
23 Sep -3.7 19:31:41 10° WSW 19:35:04 76° SSE 19:38:26 10° ENE visible
23 Sep -3.1 21:08:45 10° W 21:12:03 47° N 21:12:16 46° N visible
24 Sep -3.2 20:21:15 10° W 20:24:33 53° N 20:26:40 20° ENE visible
24 Sep -1.1 21:58:22 10° WNW 21:59:37 20° WNW 21:59:37 20° WNW visible
25 Sep -3.4 19:33:44 10° W 19:37:05 63° NNW 19:40:27 10° ENE visible
25 Sep -3.0 21:10:55 10° WNW 21:13:59 46° N 21:13:59 46° N visible
26 Sep -3.0 20:23:25 10° WNW 20:26:42 46° N 20:28:19 25° ENE visible
26 Sep -0.8 22:00:23 10° WNW 22:01:17 17° WNW 22:01:17 17° WNW visible
27 Sep -3.0 19:35:53 10° W 19:39:10 47° N 19:42:28 10° ENE visible
27 Sep -2.9 21:12:55 10° WNW 21:15:36 48° NW 21:15:36 48° NW visible
28 Sep -3.3 20:25:27 10° WNW 20:28:47 53° N 20:29:55 34° ENE visible
28 Sep -0.6 22:02:20 10° WNW 22:02:53 14° WNW 22:02:53 14° WNW visible
29 Sep -3.1 19:37:57 10° WNW 19:41:15 47° N 19:44:15 12° E visible
29 Sep -2.5 21:14:51 10° WNW 21:17:13 42° WNW 21:17:13 42° WNW visible
30 Sep -3.8 20:27:22 10° WNW 20:30:46 80° NNE 20:31:34 49° E visible
30 Sep -0.3 22:04:31 10° W 22:04:31 10° W 22:04:31 10° W visible
01 Oct -3.6 19:39:53 10° WNW 19:43:15 63° NNE 19:45:57 15° E visible
01 Oct -1.9 21:16:50 10° WNW 21:18:54 28° WSW 21:18:54 28° WSW visible
02 Oct -3.3 20:29:15 10° WNW 20:32:33 53° SSW 20:33:20 41° SSE visible
